Regional Weather Roundup
Issued by NWS Newport/Morehead, NC

Home | Current Version | Previous Version | Text Only | Print | Product List | Glossary On
Versions: 1 2 3 4 5 6 7 8 9 10 11 12 13 14 15 16 17 18 19 20 21 22 23 24 25 26 27 28 29 30 31 32 33 34 35 36 37 38 39 40 41 42 43 44 45 46 47 48 49 50
000
ASUS42 KMHX 240925
RWRMHX
WEATHER ROUNDUP FOR EASTERN NORTH CAROLINA
NATIONAL WEATHER SERVICE NEWPORT/MOREHEAD CITY NC
400 AM EST FRI FEB 24 2017

NOTE: "FAIR" INDICATES FEW OR NO CLOUDS BELOW 12,000 FEET
WITH NO SIGNIFICANT WEATHER AND/OR OBSTRUCTIONS TO VISIBILITY

NCZ015>017-031-032-045>047-102-103-241000-
NORTH COAST

CITY           SKY/WX    TMP DP  RH WIND       PRES   REMARKS
EDENTON        PTCLDY    56  54  91 CALM      29.93F
ELIZABETH CITY MOCLDY    54  52  93 E8        29.94R
KITTY HAWK     NOT AVBL
MANTEO         CLOUDY    59  59 100 CALM      29.94F

$$

NCZ045>047-081-094-103-104-241000-
CENTRAL COAST

CITY           SKY/WX    TMP DP  RH WIND       PRES   REMARKS
FRISCO         CLOUDY    65  61  87 NW3       29.92S FOG

$$

NCZ095-097-098-100-101-241000-
SOUTHERN COAST

CITY           SKY/WX    TMP DP  RH WIND       PRES   REMARKS
BEAUFORT       CLEAR     59  57  93 NE3       29.90F
CEDAR ISLAND   NOT AVBL
JACKSONVILLE   PTCLDY    57  57 100 N3        29.90F
PINEY ISLAND   SUNNY    N/A N/A N/A N3        29.90
WILMINGTON     CLEAR     57  57 100 CALM      29.89S


$$

NCZ011>013-027>030-043-044-078>080-089-090>093-098-241000-
COASTAL PLAIN

CITY           SKY/WX    TMP DP  RH WIND       PRES   REMARKS
AHOSKIE          N/A     49  49  97 CALM      29.92F
CLINTON        CLEAR     51  51 100 CALM      29.91S
ELIZABETHTOWN  CLEAR     53  53 100 CALM      29.90S
GOLDSBORO      CLEAR     53  53 100 CALM      29.89F FOG
GREENVILLE     CLEAR     50  50 100 CALM      29.94S FOG
HAVELOCK       NOT AVBL
KENANSVILLE    FOG       50  50 100 CALM      29.91S VSB 1/4
KINSTON        FOG       52  52 100 CALM      29.92S VSB 1
NEW BERN       MOCLDY    55  55 100 CALM      29.92S FOG
RICHLANDS      FOG       52  52 100 NE3       29.91F VSB 1/2
ROCKY MOUNT    FOG       50  50 100 CALM      29.92S VSB 1/4
WASHINGTON     MOCLDY    55  55  97 CALM      29.92F
WHITEVILLE     CLEAR     54  53  97 CALM      29.89S

$$

AMZ130-135-150-152-154-156-158-170-250-252-270-ANZ085-086-088-633-658-670-241000-
MARINE OBSERVATIONS

STATION/POSITION TIME  TEMP    WIND        PRES    WAVE   SWELL
                       AIR SEA DIR/SP/G            HT/PER HT/PER
                 (UTC) (F)     (DEG/KT/KT) (MB)    (FT/S) (FT/S)
CHESAPEAKE LIGHT NOT AVBL
64 E VA BEACH    0850   57 54  100/  6/  6 1013.9    4/12   3/12
DUCK             0900   55 49  140/  4/  5 1013.3
2 E DUCK         0900      50                N/A     4/11   2/11
OREGON INLET     0900   61 56  130/  3/  5   N/A
13E OREGON INLT  NOT AVBL
HATTERAS CG      0900   64 62  280/  6/  6 1012.9
DIAMOND BUOY     0850   71 73  130/ 12/ 14 1012.7    7/ 7   7/ 7
CAPE LOOKOUT     0900   63      10/  4/  5 1012.1
BEAUFORT LAB     0900   59 58   10/  5/  6 1011.5
30 SE NEW RVR IN 0908   67      70/  8/ 12 1011.8
30 SE NEW RVR IN 0843      70                N/A     7/ 8   2/11
27 SE WRIGHTSVLE 0908   66 66   40/  8/ 14 1011.3
5 SE WRIGHTSVLE  0808   59 58   40/  8/ 12 1011.8
225 S CAPE HAT   0850   69 69   90/ 23/ 29 1007.3   12/ 8   8/11
41 SE CHARLESTON 0850   70 70   60/ 10/ 12 1009.7    9/11   8/11

$$




USA.gov is the U.S. government's official web portal to all federal, state and local government web resources and services.